Location: Ar Ranvel
(48.3000°N, 4.8833°W)
Time: 04:42:20
(UTC+00:00)

COSMOS 2251 DEB - Pass Details

Date: 01 February 2022
Orbit: 755 x 1085 km, 74.1° (Epoch: 18 May)

Event Time Altitude Azimuth Distance (km) Brightness Sun altitude
Rises 18:08:28 0° 339° (NNW) 3,813 ? -8.6°
Reaches altitude 10° 18:11:10 10° 345° (NNW) 2,888 ? -9.0°
Maximum altitude 18:17:45 49° 59° (ENE) 1,378 ? -10.1°
Drops below altitude 10° 18:24:26 10° 133° (SE) 2,924 ? -11.2°
Sets 18:27:09 0° 139° (SE) 3,864 ? -11.6°
